RH
90 85 88 98 93 95 100 96 87 94 99 93 98 99 100 99 92 69 74 62 76 98 100 96 94 87 77 74 82 99 99 99 100 99 98 100 100 98 98 97 98 96 97 99 99 99 93 61 38 64 60 38 39 56
88 91 88 92 98 96 100 95 90 98 100 96 100 98 91 87 72 61 90 62 53 94 99 97 99 100 98 95 85 96 97 96 95 98 100 100 100 100 98 98 93 98 89 94 89 88 62 52 37 37 41 36 37 54
85 85 92 99 100 98 98 95 88 97 100 94 96 91 88 79 75 66 78 68 71 99 100 98 99 95 87 86 90 94 99 92 96 88 98 99 99 93 98 98 98 88 80 94 88 74 70 38 40 37 37 36 41 56
84 86 94 99 99 99 96 93 85 86 93 99 100 95 86 78 71 63 66 64 67 96 96 99 97 99 95 97 99 98 97 97 93 93 100 100 98 93 94 85 92 89 85 89 86 69 50 44 43 41 52 55 53 50
87 79 86 96 99 93 100 91 89 88 91 97 98 100 88 88 85 71 69 72 58 85 96 99 95 91 93 99 99 99 99 97 99 100 100 100 98 96 96 92 96 91 89 85 86 70 68 60 49 53 56 54 48 44
85 76 71 82 99 98 100 96 90 85 83 88 94 100 100 98 88 83 99 86 72 64 96 98 97 97 91 99 98 97 96 98 99 100 100 100 93 91 98 98 74 71 72 64 67 60 52 54 53 50 50 49 43 41
76 87 64 71 85 100 100 94 96 86 86 87 91 87 99 98 90 97 97 94 81 78 98 98 97 99 93 93 99 100 97 100 98 100 100 99 96 93 98 98 69 68 64 64 54 54 57 50 54 49 46 44 44 40
70 73 68 62 80 94 100 98 85 87 97 93 100 98 100 97 95 96 100 96 82 96 96 97 96 96 98 99 100 100 100 100 99 100 99 99 99 100 98 80 55 46 59 59 54 45 50 48 48 46 43 41 43 44
68 67 64 63 80 85 95 99 100 96 99 100 100 97 93 95 100 99 96 87 82 90 97 97 96 96 98 100 100 99 100 98 100 98 98 98 98 97 83 72 65 51 67 65 52 48 47 52 49 46 42 42 45 47
69 70 63 62 74 74 85 94 94 96 96 94 91 98 99 100 99 94 95 98 99 99 98 97 90 99 97 97 99 96 98 97 97 96 100 98 94 74 55 50 44 45 60 50 64 62 57 54 51 47 42 42 46 48
74 69 69 60 65 67 79 83 90 89 73 85 100 100 99 97 88 94 99 96 94 99 98 96 91 98 98 94 98 93 97 96 96 85 95 94 92 71 52 51 46 56 54 47 45 49 48 54 55 52 51 57 55 54
77 61 69 55 55 62 68 72 70 90 90 86 92 99 97 86 96 90 98 98 98 94 99 98 99 91 99 96 96 99 96 95 90 83 86 87 83 57 52 48 58 58 55 53 47 55 61 56 53 54 58 58 55 55
74 59 66 55 50 60 66 57 66 70 75 67 82 86 86 92 96 87 100 98 98 100 98 99 98 99 100 99 98 97 96 96 79 89 86 90 76 57 49 53 55 59 64 64 61 61 63 66 63 58 62 59 57 59
72 59 66 62 48 58 58 50 63 79 65 74 82 91 84 93 89 78 79 93 94 96 97 96 99 98 99 98 96 96 96 84 94 96 81 84 65 60 50 52 54 66 72 75 74 70 71 69 74 70 64 57 59 73
70 59 62 47 50 55 52 50 65 64 67 77 75 90 97 92 93 94 94 94 90 86 94 98 98 97 98 97 96 88 97 97 92 87 88 83 68 56 56 61 65 75 81 81 78 80 82 78 78 87 74 61 59 70
70 61 70 40 58 54 49 61 61 55 74 79 76 91 96 89 98 98 95 98 100 98 89 89 97 97 97 96 82 83 86 87 84 91 88 76 64 61 65 70 78 79 80 85 86 85 87 83 85 98 99 95 95 98
72 76 60 56 60 53 45 40 52 74 88 76 95 97 94 95 97 98 94 99 98 88 93 83 83 73 88 89 75 83 87 88 95 93 92 76 67 75 79 83 87 84 86 88 91 93 97 98 100 98 98 100 100 100
72 72 49 69 58 50 55 58 76 86 92 96 97 98 100 99 99 99 99 92 84 77 74 70 81 75 85 69 87 95 96 98 97 97 99 92 86 85 79 90 91 89 91 95 95 97 98 94 95 98 97 100 100 98
71 45 70 68 54 53 72 76 78 97 99 98 99 98 97 99 96 91 87 79 79 78 81 82 79 86 92 96 97 93 91 97 96 98 97 96 92 91 91 90 90 94 98 97 95 94 89 84 94 100 100 92 96 94
56 71 69 65 53 69 69 80 75 85 94 98 99 99 97 97 95 89 90 82 75 86 87 91 95 96 97 98 98 98 98 93 90 96 98 98 92 87 86 84 88 86 89 91 94 93 95 98 92 89 83 77 85 88
58 67 60 54 61 74 85 90 86 90 91 97 97 92 96 84 91 90 87 80 84 96 90 96 98 97 98 98 95 93 94 93 93 82 90 96 97 88 90 90 87 86 90 95 96 99 92 94 89 82 75 73 71 69
68 63 58 57 80 75 84 88 82 82 90 94 86 82 89 90 93 92 84 84 93 90 96 96 97 98 95 96 96 94 90 85 84 86 87 88 89 89 93 94 88 94 96 95 92 94 86 87 84 82 77 76 71 70
71 66 80 74 80 82 89 83 76 78 91 92 86 85 93 91 93 80 92 93 92 96 97 96 97 95 94 94 88 90 82 80 87 88 88 93 94 92 92 87 81 92 96 92 79 78 80 80 81 81 81 82 84 84
62 85 93 94 86 99 83 94 85 90 90 86 87 92 89 94 81 88 87 94 92 97 93 96 95 97 90 85 95 97 97 90 95 96 92 90 95 100 91 91 84 81 76 83 83 88 93 92 89 88 84 82 87 85
64 75 90 99 90 90 94 93 89 86 97 91 93 97 95 84 91 91 80 84 97 97 99 98 96 93 94 99 100 100 87 87 93 99 99 92 99 97 99 95 90 84 80 78 90 86 88 83 81 81 82 84 86 83
76 78 79 91 96 87 89 94 93 93 91 91 95 98 90 92 84 83 85 96 98 98 100 94 95 98 100 99 99 98 98 84 83 97 100 90 86 89 94 92 95 90 69 65 72 84 88 88 85 75 74 86 89 92
90 91 93 78 77 77 93 90 78 86 91 97 97 94 89 92 90 91 93 98 91 96 92 84 89 95 98 100 100 99 88 80 85 99 99 92 88 81 74 90 96 95 82 77 75 73 69 72 81 86 90 93 95 95
88 88 96 96 93 86 94 95 90 86 91 90 83 85 82 84 97 97 98 98 100 100 100 100 100 100 100 100 99 98 99 94 92 91 88 92 96 97 94 88 74 64 63 64 66 68 71 78 87 90 90 94 99 100
97 90 80 94 91 92 90 89 88 88 87 83 92 100 92 92 94 95 97 99 98 95 96 99 100 100 100 99 97 94 87 85 89 93 94 95 98 99 85 80 81 80 77 74 80 78 79 79 83 88 92 93 94 91
91 89 91 93 88 86 89 92 93 98 97 97 93 85 89 93 96 98 99 99 93 98 100 100 98 92 98 94 97 97 97 97 96 91 94 95 95 99 90 85 82 76 70 61 60 67 79 82 84 85 85 83 82 81
90 90 91 95 99 99 100 98 98 95 97 95 93 93 97 97 96 97 98 100 100 99 96 97 97 96 94 94 94 95 99 96 86 80 80 92 96 96 87 71 59 55 58 65 73 79 81 84 87 85 84 88 92 96
92 92 98 100 96 98 95 94 97 96 98 92 97 97 96 95 97 96 96 97 98 96 97 95 95 97 96 91 83 83 87 93 91 90 89 89 77 62 57 60 66 67 67 70 75 78 82 84 87 92 95 96 98 100
94 96 96 94 96 96 97 91 96 96 96 96 96 96 99 96 96 96 96 96 96 96 97 97 98 97 93 90 91 94 90 84 72 62 56 55 57 66 72 71 66 65 67 72 79 78 82 87 95 97 97 98 98 100
Wind_Speed
32 36 39 43 41 39 34 21 18 15 11 23 19 26 53 49 50 39 15 8 6 3 1 3 3 4 6 11 14 4 7 6 3 7 7 4 4 6 3 4 5 8 8 3 2 1 11 6 4 9 5 2 2 3
30 34 36 40 39 34 24 16 13 7 17 26 41 48 50 40 37 35 7 13 13 5 3 3 5 3 4 4 7 4 5 5 6 4 3 3 2 3 5 5 3 4 5 6 8 6 2 4 2 1 2 3 4 6
28 32 38 39 35 31 15 10 8 7 21 29 36 40 42 36 30 22 16 13 11 3 3 2 2 2 4 6 10 9 3 3 4 3 3 3 3 3 5 4 4 2 1 3 3 5 7 4 2 2 2 1 3 5
25 28 34 38 32 31 9 6 5 6 6 22 37 49 46 35 28 22 14 11 15 3 3 1 4 3 5 11 15 12 1 3 2 2 3 3 3 4 2 2 3 3 8 6 4 3 2 4 6 5 5 9 12 8
22 23 30 37 33 28 11 5 2 5 7 11 34 34 40 28 23 18 15 8 17 4 3 3 3 3 6 11 15 9 8 4 2 2 2 3 3 4 2 1 3 5 6 6 7 9 7 6 7 5 9 9 14 19
21 20 25 31 34 25 16 5 6 8 9 13 18 17 38 32 31 16 2 6 13 11 4 2 0 2 3 4 2 9 6 2 0 2 2 2 2 4 4 4 5 11 6 3 5 5 3 5 8 7 7 12 12 14
19 20 19 23 29 28 17 17 13 7 12 20 24 20 20 30 22 4 3 12 19 11 3 2 1 2 0 3 2 2 3 1 1 2 2 3 2 5 3 4 4 10 10 5 9 11 5 7 7 9 11 11 12 13
16 18 18 17 18 26 26 17 17 12 15 22 30 31 29 27 19 6 8 16 14 7 3 2 2 2 1 2 2 1 2 2 3 2 1 3 3 1 3 5 4 5 8 7 10 2 7 8 13 13 13 15 15 13
13 14 16 15 15 14 20 22 22 24 30 31 32 32 17 8 2 4 16 14 14 5 3 2 3 2 2 2 1 2 2 2 1 1 0 1 2 4 5 4 5 6 8 9 6 9 14 16 16 16 15 14 17 11
11 11 13 14 14 11 6 13 15 15 11 8 10 4 2 3 22 12 6 2 3 2 1 2 0 2 2 1 2 2 0 1 1 0 2 0 3 4 4 4 4 6 8 14 14 9 13 14 15 16 14 13 15 13
8 10 11 13 13 11 9 4 6 9 4 4 2 2 7 5 2 3 3 3 2 1 2 2 3 3 1 2 2 2 1 2 1 1 2 1 3 4 8 7 6 6 11 12 12 13 17 19 17 15 11 9 12 12
7 8 9 11 11 10 10 6 2 2 1 4 15 7 2 2 2 3 1 2 2 2 3 2 2 3 2 2 3 2 2 1 3 2 3 3 4 4 6 6 6 7 8 9 13 14 12 14 15 13 13 12 11 14
7 7 9 10 9 10 9 5 11 19 21 5 4 3 2 2 5 4 4 2 2 3 4 3 3 2 2 2 2 2 2 3 3 1 3 4 3 2 5 6 9 9 10 10 10 8 12 11 12 15 12 12 18 16
8 7 8 10 8 8 7 14 15 14 3 2 3 2 3 1 3 2 1 3 2 3 6 3 2 3 2 2 3 4 2 3 3 2 5 2 5 5 5 5 11 8 10 12 11 11 12 12 10 12 16 21 20 11
7 7 9 5 6 6 6 10 19 5 1 2 3 2 2 0 1 1 2 3 2 5 5 3 3 2 1 3 2 4 2 4 5 4 3 2 5 7 8 8 11 10 10 10 10 10 10 11 11 9 15 19 21 20
6 7 4 5 4 3 4 11 8 2 2 2 3 2 1 2 1 1 4 4 2 3 2 3 2 1 1 2 2 3 4 5 4 3 1 3 5 7 8 8 8 9 11 10 9 9 9 10 12 13 18 19 18 17
4 3 2 3 2 3 4 2 2 3 2 2 2 1 2 1 2 1 2 2 2 1 2 2 3 1 2 1 2 3 3 2 2 1 3 3 7 9 9 10 10 11 11 11 11 11 13 18 20 17 12 10 14 14
5 2 2 2 2 4 3 4 3 3 3 2 2 1 1 1 3 3 2 1 1 1 1 1 3 2 3 2 2 2 1 2 4 5 4 5 9 8 9 12 10 11 12 10 13 14 14 12 9 7 14 14 19 20
5 2 2 1 3 4 3 3 3 3 0 1 1 2 2 2 2 2 2 1 1 2 3 2 3 0 2 0 2 4 5 1 3 4 6 8 7 10 11 11 10 11 11 10 10 6 10 12 13 15 16 17 12 17
6 2 2 5 3 3 3 2 2 3 1 1 1 2 2 2 1 2 2 3 2 2 4 3 0 1 1 1 1 3 4 6 8 7 7 6 6 9 9 9 8 13 14 15 14 15 14 12 15 20 20 18 17 13
5 2 5 3 4 6 3 1 3 1 2 2 0 2 2 2 2 3 3 3 4 2 2 2 2 2 3 5 5 5 4 3 3 4 6 6 4 7 7 11 14 12 6 5 6 4 11 8 14 14 13 11 8 8
4 5 3 4 3 3 3 2 3 1 2 1 2 2 3 3 3 2 2 4 2 2 0 1 1 2 5 6 5 5 7 11 11 9 13 8 6 6 5 4 5 4 4 5 9 4 7 11 12 11 10 10 7 7
8 4 4 3 4 4 0 1 3 2 3 1 2 3 2 2 1 3 2 0 2 1 1 2 4 4 7 3 9 9 11 10 7 6 6 5 9 11 11 11 15 6 4 4 10 12 11 11 10 10 8 8 8 7
4 3 3 2 3 2 2 3 2 3 2 2 3 2 1 1 0 3 1 1 2 2 2 2 3 5 4 6 4 3 4 11 7 9 10 7 6 5 12 12 11 9 9 12 12 11 10 10 9 10 8 8 5 4
5 4 5 3 2 4 3 3 2 3 2 1 3 2 1 1 2 2 1 2 2 2 2 2 3 3 4 3 2 2 6 11 7 5 8 15 14 11 11 15 14 10 11 16 13 15 14 13 12 11 8 5 1 2
4 3 3 4 1 4 4 4 4 4 4 3 1 1 2 3 3 1 1 1 1 2 2 3 4 3 3 2 3 2 2 14 20 5 7 8 12 9 5 5 3 7 7 10 17 17 15 11 8 5 3 1 2 4
3 2 1 1 3 3 3 3 2 4 3 4 3 2 3 3 1 2 1 2 1 1 4 5 5 4 6 5 10 12 13 13 16 16 16 17 14 9 11 9 5 9 12 13 12 10 10 8 5 3 3 4 6 7
3 2 5 2 3 2 5 3 3 3 3 2 3 3 5 5 2 2 3 4 7 9 14 18 17 19 17 17 20 23 24 29 31 30 31 28 24 23 22 23 20 16 15 13 11 9 7 5 4 3 4 5 5 5
2 1 4 5 4 3 2 3 3 2 3 3 4 2 3 3 3 3 3 8 9 10 8 7 13 21 24 24 24 20 16 12 5 9 11 5 3 11 18 18 16 13 10 9 8 7 6 5 5 4 4 5 6 7
0 1 4 2 4 1 2 1 2 1 3 3 4 3 3 3 6 11 10 9 7 6 11 15 13 13 8 9 8 16 16 12 8 7 5 4 7 18 15 12 11 9 7 5 5 4 4 4 4 5 7 9 11 12
2 3 4 3 3 2 1 2 2 3 3 4 5 4 3 3 3 15 17 11 13 15 13 9 12 12 13 10 6 6 5 13 14 17 23 27 22 16 12 9 8 7 6 7 8 8 8 9 10 11 11 12 12 12
3 3 4 4 3 2 3 3 3 3 2 3 2 2 3 3 3 4 16 11 7 5 8 12 12 9 16 15 14 18 27 26 26 25 23 21 18 14 11 9 8 7 8 9 10 10 10 11 11 11 11 11 11 12
3 3 4 3 3 2 3 4 4 3 4 3 3 2 2 3 3 1 6 11 6 11 16 21 24 22 24 30 30 29 27 25 22 19 17 16 14 12 11 10 9 9 10 11 11 11 12 12 13 12 12 12 13 13
Wind_Direction
327 332 335 337 331 331 335 325 331 323 256 215 181 140 145 150 155 164 146 131 129 90 46 40 73 123 171 194 210 185 200 200 283 156 184 179 167 199 138 145 170 161 154 171 148 162 253 154 85 173 220 30 50 163
333 339 341 339 336 334 332 337 357 4 143 142 138 136 138 146 148 148 93 125 111 85 140 81 90 75 106 348 235 218 267 161 187 128 145 134 140 147 158 193 180 183 175 170 189 206 266 245 195 182 203 175 162 125
336 342 344 343 342 340 340 351 39 46 160 162 163 156 153 153 154 154 148 137 89 91 56 72 159 69 270 239 289 229 252 261 186 146 126 123 166 152 171 204 86 238 174 151 109 239 230 221 253 215 165 107 91 114
341 351 353 354 352 347 357 12 80 86 101 164 168 166 162 158 159 145 138 138 104 87 121 152 124 164 250 245 212 243 279 287 51 83 107 150 133 195 177 142 139 175 152 166 254 262 7 277 232 179 126 112 105 101
342 353 355 352 1 348 15 13 123 130 145 132 168 164 173 169 165 143 123 128 172 127 157 141 110 215 247 259 237 191 203 168 205 121 117 148 127 137 69 86 208 190 171 182 212 179 184 209 194 143 141 143 137 128
343 344 351 358 7 2 24 28 73 146 137 147 154 149 175 150 163 130 80 190 144 133 123 138 214 227 272 229 275 221 220 139 40 107 135 161 129 132 160 197 222 194 205 202 204 168 124 97 125 142 142 150 140 134
343 349 352 350 6 14 27 45 61 125 163 160 157 157 143 129 114 94 179 151 155 157 89 27 71 148 230 100 80 52 17 70 97 99 129 135 150 159 161 207 217 200 206 168 128 104 68 163 171 149 131 130 118 115
340 350 356 354 1 13 37 64 52 56 169 159 156 144 130 130 105 54 104 111 135 84 79 120 286 191 340 89 94 359 60 29 32 68 259 128 127 138 203 220 233 182 153 156 179 138 164 135 126 127 127 127 120 120
333 349 356 356 4 9 23 42 62 81 86 94 109 111 98 49 82 130 110 93 72 88 122 124 175 200 100 72 92 53 29 58 343 62 308 97 136 212 222 186 200 190 174 177 141 125 135 140 140 137 136 136 123 129
326 343 356 358 2 0 350 15 35 68 110 83 44 57 75 77 113 112 38 50 40 42 66 123 260 108 90 66 80 130 55 95 175 150 121 145 246 248 237 209 224 199 163 137 122 130 137 140 143 143 155 145 150 152
316 332 346 357 3 355 351 318 4 18 70 65 67 53 109 44 65 45 79 97 147 57 152 166 166 129 67 145 85 34 66 37 53 222 188 180 267 235 193 193 211 173 159 174 160 159 160 154 154 149 139 129 130 138
304 322 334 350 1 358 344 341 250 15 114 112 116 125 139 55 65 88 117 166 177 177 132 128 111 107 100 84 104 142 117 126 244 135 69 266 255 239 158 153 139 136 141 133 144 147 146 150 149 141 136 135 142 136
289 311 323 338 350 3 353 119 134 124 122 82 58 64 56 340 52 135 192 212 160 162 161 147 134 128 118 96 88 111 133 205 107 115 221 225 258 214 142 123 113 105 102 100 98 107 119 113 119 132 127 132 136 131
276 301 314 327 341 3 8 170 167 174 351 86 123 139 171 224 246 184 186 170 205 125 133 115 119 127 135 129 151 149 143 158 193 227 234 236 204 143 118 113 114 104 105 105 108 112 114 117 104 101 123 139 134 127
268 296 311 301 344 4 25 190 179 199 75 79 69 160 200 59 101 207 165 118 102 122 112 115 69 85 107 135 186 106 97 213 205 229 236 248 130 118 109 94 103 106 107 104 116 112 108 108 105 88 110 133 133 130
264 300 242 324 355 30 74 125 156 211 46 68 64 68 63 105 66 97 111 101 65 107 96 65 96 84 110 110 111 211 159 222 234 221 265 101 100 98 99 98 102 104 100 98 95 103 102 107 110 103 92 100 107 116
224 232 281 337 39 115 120 114 81 50 77 44 48 60 93 85 83 58 95 78 139 126 117 163 108 136 99 140 199 193 208 284 319 16 32 66 113 117 111 102 94 102 98 98 98 92 97 104 111 107 104 101 107 114
221 237 255 346 114 118 70 43 81 71 66 23 78 17 37 97 102 76 73 246 248 158 133 90 124 153 164 192 263 173 117 59 61 59 55 80 98 88 101 105 95 102 100 94 101 111 115 112 103 106 120 123 119 124
193 189 304 129 124 97 79 26 60 91 52 329 57 44 69 65 41 67 321 4 80 66 91 48 73 104 248 187 138 136 144 89 104 67 59 52 75 101 98 94 97 96 100 107 111 108 109 121 127 130 134 136 128 139
158 102 76 129 92 81 80 31 49 91 98 31 26 25 93 96 51 18 25 14 29 62 40 42 255 258 221 276 197 119 111 129 119 93 71 53 58 85 87 100 100 106 99 97 97 109 104 98 125 138 143 143 143 154
154 114 78 94 60 62 86 46 55 98 135 85 108 53 42 43 49 27 11 344 51 45 31 9 5 7 30 62 62 85 66 55 71 107 124 93 39 90 88 85 94 96 102 106 110 89 115 127 144 145 144 145 141 149
127 113 90 52 75 51 73 11 119 132 71 120 80 80 48 31 2 3 310 46 51 274 180 83 70 51 69 53 59 50 89 84 79 83 80 86 103 99 94 105 101 101 101 123 127 133 127 144 152 158 154 147 150 159
118 90 60 53 70 48 285 36 80 26 96 111 52 63 28 42 318 341 47 251 273 319 269 91 74 64 100 92 87 74 80 101 94 97 91 86 86 95 103 104 121 113 101 96 143 144 141 154 158 157 154 160 163 161
103 68 77 85 92 177 15 19 84 92 62 66 82 94 46 170 14 54 99 287 282 308 45 71 90 69 43 47 52 45 46 97 92 72 83 106 96 53 99 98 99 105 134 137 132 125 129 135 144 143 146 141 128 116
83 330 92 54 358 83 78 29 24 69 99 109 89 85 274 69 76 52 158 275 346 39 44 60 53 67 110 93 52 29 85 119 118 102 50 110 105 89 74 84 85 86 133 128 119 123 123 126 121 110 99 83 65 298
84 271 110 165 181 117 169 125 156 157 121 74 122 95 56 86 72 198 250 309 156 164 180 154 133 92 51 52 121 79 69 131 114 88 57 113 133 133 132 124 98 53 84 131 132 125 119 113 106 103 103 56 333 318
109 239 186 185 124 111 74 56 86 97 104 138 173 84 79 80 201 269 55 25 110 55 119 120 126 117 129 112 92 91 105 125 109 109 107 97 92 105 133 126 112 109 110 109 109 112 117 112 101 67 11 350 351 332
154 148 135 216 85 60 119 85 114 149 167 149 92 79 126 156 145 59 41 44 75 94 81 73 89 99 99 102 110 106 99 110 110 102 92 80 83 92 100 106 109 110 103 95 88 81 72 61 45 18 351 343 355 353
80 96 95 56 55 49 119 144 177 186 145 106 109 124 97 59 9 14 37 83 99 100 91 91 76 96 93 94 94 95 103 108 88 89 90 98 57 69 104 108 105 98 89 85 76 60 47 35 31 36 38 27 12 357
187 79 94 72 89 98 260 134 133 141 42 87 106 90 75 61 12 37 59 78 91 81 89 103 113 108 105 108 97 72 69 75 100 126 134 138 136 130 119 110 100 88 73 59 58 69 86 68 62 44 30 22 16 13
93 75 71 55 69 13 55 69 80 70 52 45 44 80 102 128 69 34 34 52 107 112 106 97 90 95 105 100 106 102 70 65 95 110 121 127 129 125 115 98 81 71 69 72 72 68 64 59 53 45 41 37 28 20
61 99 114 97 90 340 27 60 66 77 75 76 69 62 61 56 60 20 6 18 106 105 108 115 115 97 113 109 106 109 114 114 112 116 120 121 117 110 100 91 85 81 76 71 66 65 64 66 65 60 52 40 33 26
66 47 58 79 57 51 357 80 45 69 44 64 50 57 90 118 122 258 28 38 92 119 111 119 124 123 121 119 117 116 116 114 115 113 111 109 106 104 97 88 81 76 76 78 79 75 76 74 71 60 49 43 37 34